Vorticity
12 12 13 12 17 24 23 17 12 16 15 10 27 15 3 18 -17 16 -4 -2 2 -7 -5 12 -3 3 3 10 8 -4 0 -0 1 0 3 16 16 17 15 -4 19 0 -11 -24
11 9 10 8 16 7 13 8 5 19 14 5 12 6 -6 2 19 1 -1 5 20 17 12 11 26 34 22 22 6 7 20 16 17 25 25 39 24 13 -6 -9 15 1 -18 -27
11 12 7 8 13 11 4 15 10 11 16 2 -3 25 23 32 10 12 15 2 6 1 8 13 -1 9 13 7 8 22 -2 8 -15 -27 -28 -32 -28 -19 1 11 3 -7 -14 -14
12 12 12 8 7 12 7 -6 19 7 -4 22 1 10 1 14 17 18 0 9 16 12 16 18 -7 -10 -17 -17 -13 -9 -11 7 8 7 4 5 9 21 13 9 6 -1 -17 -17
14 13 12 15 7 6 10 20 -1 -17 15 14 14 14 -12 41 8 -3 2 14 -2 8 15 9 -17 17 33 29 34 39 40 17 -3 13 15 12 13 8 7 9 11 17 44 3
9 16 15 16 17 8 -0 6 8 18 9 -4 -2 8 12 23 21 19 14 10 10 17 15 17 17 20 11 3 -1 -2 4 9 5 22 17 4 45 29 45 22 8 1 -8 11
9 15 16 14 15 17 20 11 3 4 15 10 19 15 12 11 -4 19 14 18 17 4 -2 5 5 7 10 2 7 3 2 6 13 2 26 31 31 28 2 -3 -9 16 17 -1
9 9 10 12 13 13 15 15 16 12 10 6 5 -2 -0 1 6 11 6 7 4 1 4 6 19 13 32 41 47 30 20 12 3 0 13 -31 -12 56 48 15 18 66 -13 8
12 13 7 7 12 17 10 10 16 15 17 18 8 9 11 13 8 10 12 10 11 7 4 7 15 2 -14 17 12 20 30 33 2 6 5 1 24 4 -27 -8 32 -12 -10 7
16 3 6 12 8 7 8 16 10 7 9 13 17 19 17 14 11 4 5 6 5 6 12 16 10 7 -7 6 7 6 -4 18 18 10 -14 19 10 8 8 39 -3 -1 -14 -2
1 7 -7 1 3 -1 -1 1 4 8 12 6 10 8 9 9 10 13 13 13 23 15 14 13 17 14 9 29 7 2 3 1 6 27 13 29 30 8 12 -4 -6 12 -17 -15
10 14 20 21 19 16 6 9 8 9 7 -10 -20 -26 18 7 -9 1 -1 1 -8 -12 2 8 17 8 -1 15 9 27 20 4 -13 -20 -12 -19 -1 -14 -7 -14 -9 -19 6 -14
20 25 19 8 5 5 5 12 12 12 10 12 49 47 40 10 6 16 3 15 12 5 17 9 18 8 -1 -11 14 8 8 7 9 11 28 20 12 7 11 14 22 14 16 24
7 4 3 15 19 9 5 10 12 12 5 4 46 45 37 -2 20 15 12 3 14 15 3 1 -0 13 16 7 8 13 11 4 6 6 8 -8 18 21 5 -12 16 8 21 14
16 11 12 12 10 9 11 7 2 3 10 -13 2 5 32 26 17 11 4 -11 8 -1 2 7 1 0 8 9 9 3 2 8 12 3 -7 11 5 -11 -10 -7 -2 19 19 11
21 21 14 12 17 16 4 10 17 22 16 18 5 -7 4 11 9 26 34 30 25 20 18 12 30 10 12 19 -8 10 14 12 12 17 10 18 24 13 23 4 19 15 29 9
12 11 12 13 14 11 12 12 10 9 9 7 21 33 -4 10 -1 16 -2 -15 -9 15 7 1 16 10 25 7 -4 12 7 7 6 9 6 32 11 18 13 33 17 20 30 8
18 19 17 11 9 7 9 11 9 8 12 21 8 -10 4 13 12 47 16 28 30 9 -5 16 14 12 13 10 8 10 17 24 31 44 37 14 2 23 3 8 18 15 13 9
10 17 22 20 21 21 21 14 17 17 8 -2 -6 -9 4 6 2 1 4 5 12 26 -3 3 13 8 -20 5 11 7 18 28 12 29 26 13 21 29 -2 31 33 6 12 13
6 6 7 6 9 7 10 13 11 11 15 9 2 21 17 24 33 15 36 46 31 11 26 38 25 -1 13 20 40 34 38 31 23 33 20 12 15 -4 40 22 1 13 15 9
7 2 12 15 15 16 23 27 16 11 10 25 29 -8 13 -0 12 28 46 13 8 15 28 10 5 -2 34 31 17 34 32 31 18 6 9 -3 1 52 8 7 11 10 19 5
1 7 8 10 14 27 17 14 15 7 16 18 7 -20 -8 14 9 63 36 12 18 4 15 15 29 -13 27 13 6 34 38 22 18 15 3 20 28 9 17 23 30 15 14 20
4 9 49 32 10 11 0 5 -7 -8 1 17 -3 5 -12 29 56 17 15 12 8 24 17 7 8 10 10 19 13 32 13 32 18 6 23 14 -3 8 -0 8 10 16 8 6
18 17 5 17 8 -2 -9 7 4 6 9 -0 3 2 3 30 61 40 8 13 7 16 8 1 0 21 27 26 23 17 23 22 32 3 10 -4 -3 13 -7 8 11 13 9 8
17 14 14 12 10 16 13 13 8 7 6 1 3 9 27 47 12 19 6 15 13 10 -4 4 16 16 -15 -12 32 14 18 19 5 29 4 2 10 -3 3 10 10 13 13 14
26 -2 -17 -15 -1 -3 -1 14 13 2 8 10 11 27 32 20 10 18 5 4 1 -21 6 5 4 1 5 1 28 14 20 16 20 5 -2 2 4 10 13 11 18 15 16 19
4 5 11 10 14 15 11 2 1 -0 4 18 37 14 4 7 29 1 -0 -38 8 18 20 16 15 13 25 37 17 1 18 18 13 16 14 11 15 14 22 30 21 16 15 15
Height
3058 3056 3053 3052 3049 3051 3045 3046 3049 3051 3053 3059 3057 3059 3062 3063 3065 3067 3069 3070 3070 3070 3071 3072 3071 3073 3074 3075 3076 3077 3077 3076 3076 3076 3074 3074 3075 3074 3076 3078 3076 3073 3070 3030
3055 3052 3051 3050 3047 3048 3050 3047 3047 3049 3051 3052 3054 3056 3057 3059 3060 3062 3064 3066 3066 3066 3067 3070 3067 3068 3069 3070 3073 3071 3071 3071 3073 3073 3072 3070 3072 3071 3073 3073 3070 3064 3067 3032
3052 3049 3049 3048 3047 3044 3047 3049 3048 3046 3047 3049 3050 3052 3052 3054 3055 3057 3059 3061 3062 3062 3063 3064 3064 3065 3066 3066 3067 3068 3067 3067 3068 3068 3070 3069 3069 3069 3069 3067 3062 3052 3049 3030
3047 3046 3048 3047 3046 3044 3047 3047 3046 3045 3045 3047 3047 3048 3050 3051 3052 3053 3055 3056 3056 3057 3057 3059 3059 3060 3061 3062 3062 3063 3063 3061 3062 3062 3063 3062 3059 3058 3058 3056 3051 3049 3025 3043
3042 3042 3041 3045 3044 3040 3043 3044 3044 3044 3043 3043 3044 3044 3047 3047 3049 3051 3051 3052 3052 3053 3054 3055 3054 3054 3054 3055 3055 3056 3057 3056 3055 3053 3056 3055 3050 3049 3045 3044 3042 3038 3033 3025
3038 3039 3037 3039 3041 3038 3038 3040 3040 3040 3040 3041 3042 3042 3043 3045 3045 3047 3046 3047 3048 3049 3049 3049 3050 3050 3050 3050 3051 3052 3053 3053 3051 3048 3050 3048 3040 3036 3034 3034 3033 3034 3030 3026
3034 3034 3034 3035 3036 3036 3035 3037 3037 3037 3036 3037 3038 3039 3040 3041 3043 3044 3045 3045 3045 3045 3045 3044 3044 3044 3044 3044 3044 3047 3047 3048 3047 3044 3046 3042 3031 3029 3030 3030 3029 3030 3027 3024
3032 3031 3031 3031 3032 3032 3031 3032 3033 3032 3032 3034 3036 3036 3037 3038 3039 3040 3041 3041 3041 3041 3042 3041 3038 3038 3037 3036 3037 3038 3039 3041 3041 3042 3039 3030 3028 3025 3022 3025 3025 3023 3021 3018
3029 3027 3028 3028 3030 3029 3028 3029 3029 3029 3029 3030 3031 3032 3033 3034 3034 3034 3036 3036 3037 3037 3036 3035 3033 3035 3035 3036 3033 3031 3032 3034 3037 3038 3037 3027 3020 3020 3020 3020 3018 3017 3015 3013
3025 3023 3025 3026 3026 3025 3026 3026 3025 3025 3025 3026 3026 3027 3028 3029 3029 3028 3029 3030 3031 3030 3028 3028 3028 3027 3030 3029 3029 3030 3030 3028 3027 3031 3029 3016 3014 3019 3018 3017 3017 3012 3011 3009
3020 3018 3021 3023 3023 3022 3022 3023 3022 3021 3021 3022 3022 3022 3023 3023 3023 3022 3023 3025 3023 3024 3024 3023 3022 3019 3020 3019 3020 3022 3024 3024 3022 3025 3024 3012 3009 3012 3013 3012 3009 3008 3006 3004
3014 3013 3015 3017 3018 3018 3018 3018 3017 3017 3016 3018 3018 3018 3018 3018 3018 3018 3017 3019 3020 3019 3019 3018 3017 3015 3014 3012 3010 3013 3014 3015 3015 3015 3005 3005 3006 3006 3007 3006 3004 3003 3000 2999
3009 3009 3010 3012 3012 3013 3013 3012 3012 3012 3010 3010 3010 3011 3011 3012 3013 3012 3011 3012 3015 3014 3014 3012 3010 3009 3009 3006 3003 3004 3003 3006 3003 3004 2994 2997 3000 3001 3000 3001 2999 2997 2997 2996
3004 3005 3006 3007 3007 3008 3007 3008 3008 3008 3005 3002 3004 3003 3007 3007 3006 3006 3004 3006 3005 3006 3006 3004 3001 3000 2999 2994 2994 2991 2996 2997 2994 2988 2988 2991 2989 2992 2993 2993 2993 2992 2992 2992
2998 2999 3000 3001 3002 3001 3000 3002 3004 3004 3004 2997 2995 2998 3002 3000 2999 2997 2997 2996 2998 2997 2995 2992 2990 2989 2992 2984 2980 2963 2979 2981 2982 2974 2984 2984 2982 2985 2986 2985 2985 2986 2984 2986
2993 2994 2995 2996 2996 2995 2995 2996 3000 2998 2996 2993 2989 2988 2992 2995 2991 2989 2987 2987 2986 2986 2983 2981 2978 2981 2982 2971 2956 2953 2964 2968 2969 2967 2974 2974 2971 2972 2975 2976 2978 2978 2977 2980
2989 2989 2991 2991 2992 2991 2992 2993 2993 2992 2991 2989 2984 2981 2982 2984 2985 2984 2982 2981 2978 2977 2974 2969 2971 2970 2970 2957 2937 2943 2952 2954 2957 2958 2960 2958 2962 2962 2966 2967 2969 2970 2972 2975
2985 2985 2986 2987 2987 2987 2988 2989 2987 2987 2987 2985 2981 2978 2977 2978 2975 2973 2972 2970 2967 2964 2962 2962 2959 2957 2954 2935 2918 2931 2935 2940 2942 2944 2946 2948 2951 2954 2956 2960 2962 2963 2966 2968
2983 2983 2983 2984 2984 2984 2984 2984 2983 2982 2985 2979 2976 2975 2971 2969 2968 2967 2965 2963 2959 2955 2950 2949 2951 2942 2926 2912 2921 2923 2926 2929 2930 2932 2935 2937 2939 2943 2947 2950 2954 2958 2961 2962
2981 2982 2982 2981 2981 2980 2980 2978 2978 2977 2975 2972 2969 2971 2966 2968 2962 2957 2958 2952 2950 2943 2938 2939 2929 2918 2915 2915 2915 2914 2915 2917 2923 2923 2926 2930 2932 2935 2938 2942 2949 2952 2954 2956
2979 2979 2979 2978 2977 2976 2975 2974 2973 2971 2969 2967 2965 2965 2963 2961 2956 2951 2950 2945 2943 2937 2931 2929 2919 2908 2909 2908 2905 2904 2904 2904 2910 2917 2922 2924 2927 2928 2933 2937 2941 2945 2948 2951
2976 2976 2975 2975 2974 2973 2973 2970 2970 2967 2966 2964 2962 2960 2958 2952 2950 2945 2942 2939 2935 2926 2925 2922 2909 2904 2904 2904 2902 2899 2898 2900 2903 2907 2914 2918 2921 2923 2929 2934 2937 2941 2944 2946
2972 2972 2971 2971 2972 2970 2968 2966 2966 2965 2963 2962 2959 2957 2954 2948 2945 2942 2939 2934 2926 2923 2918 2913 2907 2906 2904 2902 2900 2897 2897 2898 2901 2905 2910 2914 2919 2924 2929 2932 2935 2938 2941 2944
2969 2968 2967 2968 2967 2965 2964 2964 2963 2962 2960 2958 2955 2952 2948 2943 2939 2936 2933 2926 2921 2914 2909 2907 2905 2903 2901 2900 2898 2897 2897 2898 2901 2905 2910 2914 2919 2923 2927 2930 2933 2935 2938 2941
2963 2963 2962 2961 2962 2961 2962 2961 2959 2959 2956 2953 2950 2945 2941 2934 2932 2928 2925 2921 2912 2908 2906 2905 2903 2902 2900 2899 2898 2898 2898 2900 2902 2904 2910 2915 2918 2922 2925 2927 2929 2932 2934 2937
2959 2957 2957 2958 2958 2959 2958 2957 2955 2954 2952 2950 2947 2942 2937 2930 2926 2922 2920 2915 2910 2908 2905 2903 2901 2900 2899 2898 2897 2897 2898 2900 2903 2907 2911 2915 2918 2920 2922 2924 2926 2929 2931 2934
2952 2952 2953 2953 2953 2953 2953 2952 2950 2948 2947 2946 2944 2943 2937 2931 2923 2920 2918 2915 2911 2905 2901 2899 2897 2895 2894 2894 2894 2895 2896 2898 2902 2906 2910 2913 2916 2918 2920 2922 2925 2928 2931 2934